小惑星2006 HY51

(394130) 2006 HY51 (2010)

English version
Home page
Updated on October 13, 2014

---------------------------------------------------------------------

・ プロフィール

・ 軌道要素

The following orbital elements are taken from MPO179893

Epoch 2010 July 23.0 TT = JDT 2455400.5                 MPC
M 347.79618              (2000.0)            P               Q
n   0.23542439     Peri.  340.52632     +0.88983778     -0.30108558
a   2.5975769      Node    42.39108     +0.45609273     +0.56559035
e   0.9690989      Incl.   30.56508     +0.01296717     +0.76775975
P   4.19           H   17.2           G   0.15           U   2
From 166 observations at 2 oppositions, 2006-2010, mean residual 0".40.

・ 星図

・ 光度変化

        H = 17.1  G = 0.15

---------------------------------------------------------------------

軌道要素はMPCのEphemerides and Orbital Elementsに掲載されたものです。
星図はステラナビゲータ Ver.8 (アストロアーツ) で作成したものです。
光度グラフはComet for Windowsで作成したものです。

---------------------------------------------------------------------

Copyright(C) Seiichi Yoshida (comet@aerith.net). All rights reserved.